Tracking 18852 objects as of 23-Nov-2017
HD Live streaming from Space Station
objects crossing your sky now

FENGYUN 1C DEB

Track FENGYUN 1C DEB now!
10-day predictions


NORAD ID: 31895
Int'l Code: 1999-025CKW
Perigee: 844.1 km
Apogee: 1,204.7 km
Inclination: 99.1 °
Period: 105.5 minutes
Semi major axis: 7395 km
RCS: 0.006 m2 (small)
Launch date: May 10, 1999
Source: People's Republic of China (PRC)
Launch site: Taiyaun Space Center, China (TSC)

Note: This is SATELLITE DEBRIS
aabbcc
Your satellite tracking list
Your tracking list is empty




NASA's NSSDC Master Catalog

Two Line Element Set (TLE):
1 31895U 99025CKW 17324.18495580  .00000853  00000-0  90124-3 0  9993
2 31895  99.1321 104.5483 0243780 355.7609   4.1469 13.65089737520344
Source of the keplerian elements: AFSPC